Wind_Speed
4 4 5 5 5 5 5 5 6 6 7 7 7 7 7 7 7 6 6 5 6 6 6 5 5 6 7 8 8 9 9 10 9 10 11 10 10 9 7 5 3 2 1 2 2 2 3 4 6 7 5 6 6 5 5 4 5 5 4 5 5 6 4 1 4 4 3 5 1 7 9 10 8 8 11 11 12 14 12 14 14 14 19 22 25 20 16 19
4 4 4 4 4 5 5 5 5 6 6 7 7 7 8 8 8 7 7 6 6 6 7 7 6 6 7 8 9 10 11 12 12 14 15 13 11 10 9 7 4 3 2 2 1 1 4 6 7 8 8 8 7 6 6 4 5 6 4 4 6 5 2 2 5 5 4 6 2 4 8 11 8 6 10 10 11 16 16 16 16 17 20 23 30 27 23 25
5 5 5 5 5 5 6 6 6 7 7 7 8 8 8 9 9 8 8 7 7 7 7 7 7 7 7 8 9 10 11 12 15 18 18 15 13 12 10 9 7 5 3 3 2 2 5 6 7 9 9 9 7 6 6 6 6 6 5 6 5 2 3 3 5 6 5 5 5 5 6 9 10 6 8 9 13 15 16 17 16 19 24 24 29 31 29 29
6 6 6 6 6 6 6 7 7 7 8 8 8 9 9 10 10 10 10 9 8 8 7 7 7 7 7 8 8 8 9 11 15 19 19 16 15 13 11 11 9 7 6 4 3 3 4 4 6 9 9 9 7 6 7 8 6 3 5 7 4 3 5 4 3 5 4 4 7 7 5 8 10 8 9 10 11 13 17 21 20 22 25 23 26 30 31 31
8 8 7 7 7 7 7 7 8 8 8 9 9 9 10 10 11 11 11 11 10 9 9 8 7 8 7 8 8 7 6 5 6 10 13 15 16 14 13 12 11 9 7 6 5 4 4 2 5 8 8 8 7 7 8 10 7 3 8 10 6 3 5 2 1 3 4 4 8 8 6 7 7 9 14 14 12 13 12 15 19 22 21 18 23 27 28 30
10 10 9 9 8 8 8 8 9 8 9 9 10 10 10 11 11 12 12 12 12 11 10 9 8 8 8 8 8 7 6 4 2 3 6 12 16 15 13 13 13 11 9 7 6 4 3 3 7 8 9 8 7 8 5 9 9 6 8 9 7 7 7 2 0 4 4 5 8 8 7 5 6 10 15 19 23 22 14 12 14 15 15 14 19 24 26 27
12 12 11 11 10 10 9 9 9 9 9 9 10 11 11 11 12 12 12 13 12 12 12 11 11 9 8 8 9 8 10 13 12 10 10 11 15 16 15 14 13 13 11 9 6 5 4 6 9 8 9 8 7 9 4 6 9 7 7 7 6 6 9 6 3 6 5 7 9 6 6 7 11 12 11 20 30 28 22 22 22 19 17 16 20 24 26 27
14 13 13 13 12 12 11 11 11 11 11 10 10 11 12 12 12 13 13 13 13 14 13 12 13 11 9 8 8 8 12 18 18 15 14 13 15 16 16 14 14 13 12 10 7 7 7 8 9 7 8 7 4 6 4 5 9 10 9 7 5 5 10 9 5 7 6 8 9 7 9 12 15 12 11 24 30 26 24 25 28 29 25 22 24 25 26 27
16 15 15 15 15 14 14 14 13 13 12 12 12 12 13 13 12 13 13 14 14 15 14 14 14 12 10 8 6 8 12 15 14 13 14 14 16 17 17 16 15 14 12 12 9 9 8 8 8 6 8 7 4 4 4 5 6 8 9 6 6 7 9 9 9 10 8 9 7 8 13 15 14 9 15 30 33 28 25 23 25 28 29 27 27 27 28 29
18 18 18 17 17 16 16 16 15 15 14 14 14 14 15 15 14 14 15 15 15 16 16 16 15 11 9 7 6 6 9 11 10 10 11 13 16 18 19 18 16 14 12 12 11 10 9 9 8 7 10 8 7 5 4 6 3 3 7 8 9 11 10 9 11 11 8 9 10 11 13 14 10 6 14 23 21 20 20 21 22 22 26 27 28 29 29 31
21 21 20 20 19 19 18 18 18 17 16 16 15 16 17 17 17 17 17 17 17 17 17 17 15 11 9 7 9 9 11 12 12 11 11 13 14 16 19 18 17 15 12 11 12 12 11 11 10 8 7 3 5 5 5 7 5 5 6 9 12 14 13 12 13 12 9 7 11 11 11 14 9 7 21 23 13 13 14 17 19 21 24 22 24 27 29 32
23 23 23 23 22 22 21 20 20 20 19 18 17 17 18 19 19 19 19 19 19 19 19 18 15 10 8 9 15 16 16 16 15 14 14 14 14 15 16 17 17 16 14 11 11 13 12 11 10 8 7 5 5 3 3 5 5 5 5 9 12 12 14 17 16 13 11 6 8 6 8 14 13 16 34 30 20 18 13 14 17 20 23 21 22 24 27 31
26 25 25 25 24 24 23 23 22 22 22 20 19 18 19 20 20 20 21 20 20 20 20 19 15 11 8 10 17 18 17 17 16 16 16 15 15 15 15 16 16 16 15 13 12 12 11 11 9 9 9 8 7 4 4 3 3 5 6 7 9 10 11 14 14 10 10 7 8 6 7 10 13 24 34 24 19 21 15 16 18 19 21 21 23 25 28 31
28 28 27 27 27 26 26 25 24 25 24 23 22 21 21 21 21 21 21 21 21 21 21 19 15 10 9 13 18 19 19 18 17 18 17 15 16 15 15 15 15 15 14 14 14 12 11 11 9 9 9 8 7 6 6 4 5 5 5 5 6 9 6 7 10 11 9 7 9 8 8 11 10 17 23 17 18 19 15 17 18 19 20 21 24 27 30 32
29 29 29 29 29 28 28 27 27 27 26 25 24 23 23 22 22 21 21 22 21 21 21 19 15 10 9 16 20 19 18 18 19 20 17 16 15 14 14 14 14 14 13 13 13 12 11 9 8 7 5 5 6 6 7 7 6 6 5 6 7 7 5 6 10 12 9 5 11 11 6 11 13 9 9 15 16 15 15 16 16 18 19 21 26 29 31 33
30 31 31 31 31 31 30 30 29 29 28 28 26 25 25 25 24 23 23 23 22 22 20 16 14 9 8 13 17 18 18 18 19 18 16 16 14 13 14 13 12 12 12 12 11 11 10 8 7 7 4 4 6 5 7 7 7 7 7 8 8 7 8 5 8 11 8 5 11 13 8 10 10 2 9 14 14 13 14 15 16 20 21 21 26 30 33 34
28 29 30 31 32 33 32 32 32 31 30 30 28 27 26 26 26 26 26 25 24 22 18 13 10 8 11 16 16 17 19 19 17 15 14 13 13 14 12 11 12 11 10 10 10 9 8 6 5 6 7 6 6 5 5 7 7 6 6 8 10 11 11 6 3 7 9 6 10 13 11 15 15 10 9 12 14 14 16 18 20 24 25 23 25 31 35 36
25 26 27 28 30 31 32 33 33 33 33 32 31 30 29 28 28 28 27 26 22 18 15 12 7 4 10 15 14 13 16 16 14 14 13 11 12 13 12 11 10 9 8 7 8 9 8 7 4 4 7 7 7 7 6 9 9 9 9 8 9 10 11 11 5 6 11 9 10 12 13 19 20 20 21 19 16 16 19 21 24 28 29 26 25 29 34 37
25 25 25 26 26 27 28 29 31 32 33 33 32 31 31 29 27 26 25 21 14 9 8 7 10 5 6 9 11 13 14 13 10 12 13 12 12 13 13 11 9 9 8 5 8 10 8 6 5 6 8 9 11 12 12 14 13 14 13 9 11 11 11 15 6 7 10 8 10 14 15 18 21 19 21 23 20 18 20 22 24 28 29 27 27 29 29 34
24 25 25 26 26 26 26 26 26 27 29 29 30 28 25 20 15 13 12 14 16 15 13 11 12 14 14 14 16 15 14 14 13 14 13 12 12 12 12 10 8 9 9 7 6 8 7 6 7 10 12 13 14 15 17 17 14 13 12 10 13 12 13 16 5 6 6 6 10 15 16 19 22 20 19 22 22 20 21 22 25 28 27 24 26 29 29 31
23 24 24 25 25 26 26 25 24 24 24 24 24 20 15 12 9 7 7 13 20 21 21 20 19 21 23 21 22 22 18 15 16 17 15 13 12 10 11 12 8 7 11 11 4 4 5 7 12 17 17 13 10 9 12 14 14 12 11 12 12 11 14 13 1 6 5 4 9 14 16 19 20 19 19 21 20 19 23 24 26 28 26 24 26 29 28 25
22 23 24 24 24 24 25 24 24 24 23 22 20 15 13 14 15 14 13 13 18 21 22 23 25 28 29 28 29 29 22 15 16 19 19 15 16 12 11 13 10 8 9 9 4 3 6 10 18 20 10 5 4 4 9 13 13 12 9 9 9 10 12 7 4 5 5 4 7 11 13 16 19 20 20 21 20 20 29 30 26 27 26 24 25 24 22 21
22 22 23 23 22 23 23 23 22 22 21 20 18 15 14 14 13 15 13 9 15 22 24 26 27 28 30 29 31 29 23 19 17 18 22 19 18 16 13 12 12 10 8 11 10 7 8 10 14 11 3 4 8 6 8 10 10 10 8 7 10 10 9 6 2 3 6 6 8 11 12 13 17 19 19 25 26 23 30 31 26 27 28 28 26 21 17 19
22 23 23 22 21 21 21 21 20 20 20 18 17 15 13 11 11 12 10 9 11 15 22 26 25 26 28 26 27 25 22 22 17 15 22 22 18 14 15 13 12 11 10 14 15 13 13 7 1 1 2 6 10 7 7 8 7 9 10 10 11 11 11 9 2 3 7 9 6 8 11 11 13 15 14 14 15 16 21 22 21 27 31 30 28 23 19 20
23 24 24 22 21 20 19 19 18 17 16 14 13 11 9 7 7 7 6 7 8 8 14 20 19 23 27 26 26 20 15 17 18 17 20 23 19 10 9 12 11 12 14 17 14 13 15 5 4 2 3 5 8 8 9 9 7 8 12 14 16 14 13 11 5 6 8 7 2 2 9 8 6 10 10 4 5 8 12 12 15 25 30 25 23 23 21 21
23 24 24 23 22 19 16 14 12 12 10 11 11 8 6 4 3 4 4 5 7 5 5 9 10 11 14 19 21 14 6 10 16 20 18 20 22 13 5 7 8 9 10 10 9 8 6 2 3 5 6 5 8 11 11 9 8 8 5 7 11 13 13 12 7 5 6 7 1 2 6 9 4 6 8 5 7 9 8 8 13 20 26 24 20 19 18 19
24 24 25 24 22 19 15 10 11 10 7 9 9 6 5 5 2 3 3 7 8 6 8 8 8 8 8 10 15 13 2 3 6 13 18 19 22 15 8 7 7 6 2 2 5 4 4 4 3 5 7 7 9 10 10 11 9 5 1 2 2 5 8 8 6 6 6 9 5 5 3 10 10 6 9 8 8 10 10 11 12 15 21 26 23 16 15 19
24 24 25 24 22 19 14 11 12 10 10 11 7 6 6 6 5 3 1 8 4 8 7 6 7 8 8 10 19 13 2 1 3 8 19 21 18 12 10 13 9 7 7 6 7 2 3 5 6 8 7 7 7 3 2 10 9 2 3 3 3 1 2 2 3 6 6 8 8 8 10 8 12 6 10 13 13 12 13 14 13 12 16 24 25 17 15 18
24 24 25 24 23 20 15 13 11 10 12 10 7 9 9 10 6 2 4 7 1 6 4 7 8 7 8 10 16 12 2 1 1 3 12 16 17 10 5 10 10 7 7 10 10 3 2 2 3 7 7 6 3 4 4 4 5 2 4 4 5 3 1 2 4 4 5 9 9 9 13 7 13 7 8 10 9 11 12 11 11 13 14 19 23 18 14 17
24 24 24 23 22 19 15 13 11 11 10 8 9 11 11 9 4 3 9 6 1 2 5 7 7 8 12 9 8 11 6 2 2 6 7 6 12 9 3 3 5 6 5 8 10 6 3 4 1 4 6 2 5 6 5 3 3 5 5 2 2 3 2 2 4 2 4 11 8 13 18 11 10 4 7 8 8 12 11 8 9 11 11 15 19 19 16 18
25 23 23 24 22 18 15 13 12 11 9 9 10 15 12 5 2 8 9 1 2 2 6 6 6 8 13 11 6 9 10 5 5 9 6 3 7 9 4 2 3 4 6 7 9 8 6 5 3 3 3 4 5 3 3 3 3 4 3 2 2 4 3 3 4 3 6 10 3 13 20 17 11 3 6 8 10 14 11 6 7 8 8 12 15 16 16 16
26 25 24 24 23 19 16 14 12 9 9 9 13 16 8 2 6 11 5 5 0 6 6 6 8 8 11 11 6 7 7 6 10 10 7 6 6 8 8 7 6 4 6 6 6 5 6 7 7 4 3 7 6 2 2 2 3 4 5 4 4 4 3 4 4 4 8 7 2 7 11 13 13 9 7 7 9 13 9 4 8 8 8 12 12 13 15 15
28 26 26 26 25 22 17 15 12 9 9 11 14 11 4 5 9 9 7 5 2 3 4 3 7 7 8 8 6 6 4 3 10 11 8 8 7 8 11 11 6 3 4 4 3 4 3 3 8 6 3 10 12 7 5 4 7 9 7 6 6 5 5 6 6 6 8 4 3 4 2 6 9 8 14 16 13 15 12 10 13 14 14 14 13 14 15 15
29 28 29 29 27 25 21 18 14 10 11 14 11 6 5 10 9 4 9 11 3 2 4 3 5 7 7 7 4 6 5 4 9 10 7 8 6 7 11 13 11 5 2 2 3 4 6 6 8 9 4 12 17 11 4 2 7 10 7 6 7 6 6 6 7 7 6 5 2 5 2 5 5 2 14 20 19 19 17 16 17 20 24 20 15 15 17 17
30 31 31 30 30 29 26 22 16 11 15 16 8 5 7 11 8 4 7 8 4 3 3 2 5 7 8 7 3 5 7 5 9 9 7 8 8 8 9 11 15 9 4 5 3 3 8 9 5 5 2 11 13 6 2 4 4 6 5 6 7 6 7 7 8 6 3 7 6 6 4 7 6 4 9 12 14 17 18 17 16 20 27 24 19 22 22 20
31 32 33 33 35 35 29 24 18 13 18 15 5 7 11 10 6 3 5 6 5 6 7 2 5 6 8 6 5 7 5 3 7 6 6 10 10 10 8 7 14 15 10 7 3 4 7 5 4 4 1 5 4 1 1 2 2 5 6 6 3 1 3 6 8 3 1 7 8 5 7 9 9 9 9 13 13 15 15 16 15 17 20 19 21 26 25 24
33 33 36 40 41 38 32 26 19 18 21 12 6 10 10 8 8 5 3 3 3 7 8 6 7 8 8 7 7 9 6 3 7 5 4 7 8 11 11 7 13 18 16 12 5 5 5 4 3 4 1 1 3 4 2 4 1 4 4 4 2 3 1 4 6 3 3 9 9 9 13 12 10 8 8 15 16 16 17 16 14 13 12 12 19 27 27 25
39 37 40 46 46 41 34 28 24 26 21 8 10 15 9 7 11 9 4 4 2 6 9 9 8 8 9 9 7 11 10 6 8 6 5 6 6 10 13 9 11 17 22 19 8 3 2 4 3 1 1 3 3 1 3 2 1 1 3 2 1 1 3 5 5 4 6 8 9 15 19 15 11 7 6 14 16 17 18 16 13 11 10 11 18 25 27 24
40 34 31 40 44 41 36 31 31 29 17 8 12 14 8 10 15 14 10 9 5 6 10 11 9 7 9 10 7 8 12 9 9 7 7 7 6 9 14 9 10 16 21 19 9 3 2 4 3 1 3 2 3 4 5 5 3 0 4 3 1 2 3 5 6 5 6 8 9 16 19 13 9 6 7 14 17 17 16 13 12 12 13 14 16 22 26 25
33 22 16 28 31 31 38 36 32 24 11 8 12 10 8 9 12 16 17 15 9 8 9 10 10 10 10 11 10 7 9 9 9 8 7 8 7 7 12 10 7 10 15 14 9 3 2 3 4 0 1 3 4 7 9 10 9 6 5 6 6 3 1 2 5 6 6 7 7 10 15 12 3 2 6 13 16 16 14 11 9 9 13 15 17 22 27 27
24 13 10 21 17 19 35 32 20 13 5 6 10 9 10 10 8 12 18 18 14 11 8 8 10 12 11 11 11 9 8 7 8 9 7 9 10 7 10 14 9 7 7 6 7 5 3 4 6 4 3 6 8 9 12 11 9 9 9 9 10 9 5 4 7 6 4 6 9 8 13 15 2 7 4 8 12 12 12 11 7 7 12 15 17 22 25 25
16 8 8 16 12 16 31 20 8 10 6 8 11 6 8 10 9 11 12 13 11 8 6 6 9 11 10 11 12 8 7 7 8 10 7 10 13 9 11 17 15 14 11 5 8 9 5 2 6 8 7 8 6 4 3 3 2 3 6 8 10 10 9 8 8 5 4 6 9 10 13 16 4 8 5 5 7 6 8 9 7 8 13 16 20 24 24 24
12 9 9 14 13 19 25 9 4 10 5 9 12 10 11 9 6 7 9 11 9 5 6 7 9 12 11 10 11 9 8 9 11 12 9 8 12 11 11 16 15 13 10 5 4 6 3 1 6 8 7 8 3 4 3 1 2 3 6 8 9 10 11 10 6 3 3 6 9 9 11 15 6 8 6 3 4 5 8 9 8 10 14 17 21 24 26 26
14 14 14 17 19 24 21 6 3 8 8 10 10 13 17 12 7 8 8 10 10 7 8 10 11 13 11 9 10 12 12 10 11 13 11 8 8 9 13 19 17 11 10 8 6 8 6 4 6 5 6 6 4 3 2 2 5 7 9 11 11 12 13 9 4 2 5 14 18 11 8 13 9 3 2 10 8 7 9 12 13 13 14 18 22 25 27 28
11 12 13 24 35 36 26 18 14 9 10 13 12 14 16 11 12 18 14 10 13 11 9 7 7 9 10 10 11 13 13 11 9 10 9 9 5 3 9 17 20 16 15 13 12 13 8 5 7 8 9 8 9 11 6 3 6 7 9 14 15 16 17 11 6 7 11 19 21 14 11 15 14 11 17 20 12 7 10 12 13 15 18 20 23 26 30 30
8 6 6 16 33 36 26 24 23 12 10 15 12 11 16 13 13 21 18 12 14 18 13 6 5 5 6 9 11 12 13 13 11 8 8 10 6 1 2 9 15 14 10 7 7 8 5 5 11 14 15 14 15 18 10 2 5 8 11 17 17 17 20 14 9 12 14 13 13 15 20 21 18 20 25 26 19 16 17 13 9 13 20 23 24 28 31 32
8 4 4 6 16 22 18 15 14 10 11 15 8 6 15 16 12 14 15 13 16 19 12 8 8 8 8 10 11 12 14 14 13 11 11 12 9 2 2 2 8 9 6 5 3 1 1 6 14 18 21 20 20 23 21 15 12 11 11 15 17 17 18 16 17 19 14 8 10 17 24 23 17 19 25 27 25 22 19 17 18 22 25 24 23 27 30 31
9 6 8 10 9 9 11 16 17 12 12 13 8 8 14 16 12 11 12 13 16 15 9 7 14 17 18 17 14 12 13 13 11 12 13 13 11 7 3 2 4 4 2 3 3 1 1 6 11 15 19 19 20 22 23 23 21 16 12 13 15 17 19 23 25 22 14 12 16 19 24 24 18 17 23 25 24 22 22 25 27 30 33 28 20 22 28 30
13 13 14 15 10 4 10 22 25 18 16 14 10 10 14 16 17 16 11 8 9 13 13 11 15 21 24 23 17 12 11 11 12 13 13 13 13 10 7 6 4 1 2 1 0 2 2 5 9 13 16 18 18 20 22 24 24 22 19 15 12 14 22 26 22 16 17 24 26 24 26 25 18 18 24 27 28 28 28 30 30 30 36 35 24 22 28 32
13 12 12 14 12 9 13 17 16 12 14 15 12 11 14 18 20 16 13 12 9 9 14 17 20 21 21 21 20 17 16 17 19 18 14 12 12 10 8 8 4 2 2 1 0 1 4 7 9 10 12 14 18 21 23 24 24 24 23 20 19 22 26 24 16 13 19 24 25 25 27 21 15 19 24 25 28 26 23 25 28 33 41 41 31 26 31 37
19 18 15 13 9 7 10 10 9 9 10 11 12 12 13 18 22 16 14 19 19 13 13 18 22 20 18 18 18 19 22 23 23 24 21 17 12 9 7 7 6 4 2 3 2 2 4 7 7 7 10 12 16 20 22 23 24 24 22 22 26 28 25 20 16 16 18 19 20 21 19 14 14 19 19 19 24 23 20 22 27 36 44 41 31 30 35 38
24 25 22 14 6 5 7 6 7 9 8 8 12 14 14 17 21 17 13 16 21 24 23 22 19 16 15 17 20 25 30 32 32 35 35 31 21 14 13 13 13 10 6 5 5 4 5 6 6 7 10 11 15 20 20 17 16 16 18 23 27 26 23 22 23 23 21 17 15 14 12 13 17 19 18 21 25 22 19 22 27 33 38 33 27 30 35 36
Wind_Direction
347 355 355 358 358 2 0 0 2 2 1 358 357 353 351 351 347 344 340 338 336 333 334 327 305 284 270 263 259 260 261 259 259 256 252 240 231 228 223 223 205 193 167 161 179 192 229 231 228 229 224 228 228 225 234 225 193 200 230 244 252 260 270 317 277 283 314 304 161 168 192 217 220 182 213 231 230 239 242 239 231 233 238 237 243 243 243 251
320 326 331 336 337 342 343 347 350 351 354 352 353 353 351 350 350 349 340 335 326 319 320 321 314 296 280 267 260 262 263 265 266 261 252 241 231 224 223 229 213 204 209 200 205 194 229 233 229 225 217 223 230 224 231 221 197 224 254 254 257 275 311 349 293 282 288 289 276 188 205 224 233 185 193 219 230 227 232 240 230 233 239 239 245 242 240 248
301 307 311 315 321 327 329 333 336 339 342 342 345 345 346 346 348 350 346 343 333 322 312 310 311 303 292 279 269 263 264 272 271 262 252 240 232 226 225 229 221 214 213 223 245 235 244 249 232 217 218 228 220 210 221 216 218 234 244 259 266 311 313 280 262 262 270 272 266 252 215 220 238 198 175 216 239 229 225 233 224 227 233 232 240 242 238 243
293 297 300 305 308 312 317 322 324 329 332 334 336 337 340 340 342 345 345 345 339 332 318 309 303 297 295 289 281 270 272 278 267 259 252 240 232 227 226 229 226 223 218 226 243 258 289 279 224 205 220 233 207 206 219 206 212 206 218 262 311 14 305 278 239 250 251 250 260 257 223 226 233 204 196 223 244 241 233 233 227 227 236 228 227 241 240 239
291 293 296 298 301 305 310 313 316 321 324 327 329 330 333 334 337 339 340 342 341 338 330 320 306 295 292 286 282 275 271 277 261 258 251 234 230 228 227 231 228 228 226 230 240 265 303 272 202 198 224 236 201 211 222 199 203 229 235 257 294 305 282 293 128 238 227 238 255 241 232 234 215 208 220 226 236 246 244 240 234 231 243 234 222 239 243 238
292 294 295 296 299 302 304 308 313 316 320 323 324 326 328 330 331 333 335 337 337 336 334 329 318 304 294 284 278 264 246 256 279 296 264 230 228 228 230 234 231 232 232 234 242 260 274 208 201 207 228 241 215 217 206 185 204 245 246 244 259 257 258 284 130 242 238 235 241 232 240 231 209 231 231 227 235 243 252 257 245 234 240 240 230 237 242 241
291 294 295 298 300 301 304 306 308 311 316 320 321 323 324 327 328 328 331 331 332 332 332 330 325 317 301 283 275 259 238 254 267 275 278 246 231 229 232 237 234 236 235 239 245 248 248 220 222 227 241 251 234 224 188 179 208 238 265 249 238 236 243 255 246 247 244 234 241 242 251 235 231 250 244 235 239 242 250 258 255 248 242 241 237 240 246 248
288 291 293 296 299 301 303 304 306 308 310 314 316 318 318 322 324 325 326 327 328 327 328 327 324 321 305 280 273 263 241 256 270 271 266 251 236 231 234 238 238 239 238 240 238 238 247 244 243 243 250 256 243 225 190 208 218 223 254 258 223 226 244 244 234 239 236 236 245 248 250 248 245 261 264 248 248 247 246 253 257 256 251 245 243 245 249 249
286 288 290 292 295 298 300 302 303 303 305 308 310 311 312 314 317 319 320 321 323 323 324 323 322 318 303 279 264 264 253 261 277 270 257 247 239 234 236 238 240 240 240 242 237 238 248 257 253 249 270 279 267 238 190 225 234 223 250 266 236 241 247 234 233 237 230 232 230 236 247 252 249 260 269 256 254 255 246 245 250 254 253 247 245 246 248 249
284 285 287 289 291 293 295 297 298 299 300 301 304 306 306 308 310 312 313 315 317 318 320 321 321 314 296 275 244 257 269 272 277 267 254 249 243 238 240 240 241 241 242 246 245 244 248 260 264 263 278 279 254 239 190 226 283 296 276 278 262 258 252 230 239 236 222 236 222 226 249 254 240 225 262 257 250 250 238 235 236 242 249 245 243 244 246 249
283 285 286 286 288 290 291 293 294 295 295 296 299 301 302 303 305 307 308 311 312 314 317 319 321 310 287 261 233 251 279 282 278 270 258 254 249 245 244 240 240 241 243 250 252 250 249 259 271 272 273 265 247 233 216 242 277 313 300 287 267 254 248 233 237 230 215 237 217 225 259 254 231 212 248 247 237 239 221 221 225 233 246 242 240 241 242 246
283 283 284 285 286 287 288 290 290 291 291 292 294 296 299 300 301 304 304 307 309 311 314 316 318 307 286 255 242 257 280 282 279 273 261 256 253 249 247 242 241 242 243 248 255 255 254 262 267 263 268 288 285 251 238 250 263 293 286 283 272 253 246 233 229 219 207 212 184 208 272 247 219 224 248 247 236 240 223 218 224 231 245 242 237 237 240 245
284 284 284 285 285 286 286 288 289 289 289 289 291 292 294 295 297 299 300 303 305 308 311 314 314 301 279 254 256 270 282 279 276 271 261 254 250 248 247 244 242 243 243 244 251 256 255 261 259 256 268 278 279 277 287 259 239 279 255 260 278 270 256 224 210 192 192 199 163 182 274 255 215 222 244 246 226 229 220 224 231 232 240 240 237 235 239 244
283 284 284 285 285 285 285 286 288 288 288 288 289 290 291 292 294 295 297 299 301 304 307 308 307 293 264 261 273 278 277 277 273 265 259 252 248 249 248 246 245 243 245 245 250 255 252 256 256 256 261 258 269 284 279 241 209 254 252 237 252 266 265 180 172 166 179 194 168 183 259 271 256 237 239 227 214 220 219 227 233 234 234 235 240 238 240 245
281 282 284 284 285 285 285 285 286 287 287 286 287 290 292 292 293 294 295 297 299 301 303 302 298 285 267 271 277 279 276 273 268 263 257 250 248 249 246 245 245 242 243 244 246 248 247 249 248 252 253 237 254 272 268 252 225 227 246 255 240 241 245 176 174 184 190 174 175 191 243 264 276 278 208 195 210 216 225 236 235 239 235 232 241 242 242 245
278 279 280 281 283 283 284 285 285 285 285 286 287 289 291 292 294 295 296 297 298 298 298 296 285 272 267 273 273 276 276 267 264 263 254 247 242 241 243 241 238 238 238 238 240 241 241 239 239 247 243 234 241 250 265 269 254 224 226 261 260 251 258 220 175 197 204 145 179 206 250 268 272 283 151 182 214 218 229 243 242 249 246 233 237 244 246 245
279 279 279 280 280 281 282 283 284 284 284 285 286 287 290 292 292 294 294 295 294 292 289 282 275 267 259 265 269 272 271 266 263 259 249 243 236 232 236 234 232 233 231 234 236 231 228 222 230 243 232 232 239 239 260 264 263 248 226 249 262 264 267 253 191 197 197 181 205 215 236 257 262 264 236 217 220 221 234 247 250 257 255 243 238 244 248 246
283 283 284 283 282 282 282 283 283 283 283 284 285 287 288 290 292 293 292 290 288 286 282 261 237 258 256 252 259 264 268 269 261 252 246 236 230 226 223 226 227 222 219 229 226 212 212 213 219 255 237 226 224 219 230 240 255 279 273 266 273 272 265 263 264 166 177 198 231 226 232 251 259 265 265 254 237 228 237 248 255 258 257 251 242 241 245 246
284 285 286 287 287 287 286 286 286 284 284 283 284 286 288 291 292 290 285 279 267 257 272 228 196 232 274 259 271 277 273 273 263 252 246 235 228 222 218 219 212 207 209 211 202 195 198 208 217 247 242 225 218 212 222 239 256 280 285 281 282 282 271 270 276 146 179 205 229 235 242 254 261 263 265 265 259 247 246 250 254 257 256 253 245 241 240 244
283 284 285 286 287 289 289 291 291 290 290 288 289 290 290 292 291 287 271 253 244 248 261 241 221 249 270 275 283 285 277 274 267 254 248 240 225 214 211 205 197 209 222 222 199 183 194 220 228 236 238 235 232 228 234 248 263 277 279 276 273 274 271 272 268 144 188 223 238 246 251 257 263 265 266 268 268 264 261 257 254 255 255 250 246 242 237 242
284 284 284 285 286 288 289 290 292 292 294 294 297 298 290 276 270 279 277 267 266 264 261 255 249 252 259 264 269 274 275 276 268 255 251 238 211 201 196 191 199 217 221 220 200 149 187 223 234 239 247 252 256 254 250 255 263 267 266 271 272 265 268 272 219 141 179 218 253 260 262 262 263 266 268 268 265 262 263 262 258 260 261 254 248 244 238 238
288 287 286 286 287 288 288 289 290 289 292 293 297 298 284 273 269 270 278 284 276 265 259 259 256 255 259 261 262 266 266 264 258 248 247 227 200 203 193 187 212 226 201 195 182 179 205 230 242 246 253 267 281 279 264 261 262 263 258 260 264 262 269 269 118 134 177 206 263 271 271 270 268 267 265 261 256 253 257 260 261 265 267 260 252 248 239 230
292 291 291 292 291 291 290 290 289 288 289 288 290 290 284 281 274 269 271 277 274 264 260 260 257 257 260 259 260 259 249 247 248 241 242 221 193 206 207 196 224 228 195 195 207 213 218 235 247 249 231 244 260 245 247 259 253 246 242 248 254 254 266 265 147 153 197 216 270 286 280 270 267 262 255 251 249 248 252 257 261 263 263 259 256 252 238 226
296 295 296 297 295 294 293 292 290 288 287 285 283 280 278 278 269 272 273 266 268 260 258 259 254 252 254 253 256 251 239 241 240 234 234 214 188 201 215 218 233 234 221 219 219 225 236 236 164 120 163 233 255 231 218 245 246 233 226 234 248 250 258 265 307 337 251 234 250 290 283 265 253 246 239 241 242 241 246 254 262 262 261 260 257 252 239 229
297 297 300 302 301 299 297 295 290 286 284 280 277 271 270 270 258 273 288 268 255 237 251 254 245 247 247 246 247 239 236 242 234 230 224 205 190 186 210 219 227 239 236 231 230 238 245 229 105 210 216 205 241 241 222 228 249 243 223 228 244 257 266 269 321 352 296 264 188 303 295 277 229 225 223 174 169 218 231 240 251 259 265 264 253 247 239 233
296 297 301 304 306 306 303 300 289 283 281 270 268 263 254 238 237 295 314 276 253 199 202 220 218 230 231 234 229 213 236 251 233 231 221 203 197 190 207 209 210 248 250 238 242 249 244 156 110 238 235 213 236 252 237 221 245 255 231 235 247 258 268 271 293 307 282 284 227 94 309 292 257 217 221 171 166 202 210 224 235 244 259 264 253 245 242 240
294 296 300 304 308 311 310 296 277 276 270 263 261 241 226 199 166 360 341 278 253 167 147 174 187 189 188 206 192 175 239 248 202 215 205 200 200 198 225 207 194 237 228 233 253 233 189 175 174 210 222 232 234 251 237 210 230 256 21 4 260 254 262 262 273 257 262 294 274 176 208 278 277 232 208 201 206 223 230 243 245 235 242 255 258 253 250 252
291 293 297 301 305 309 308 290 279 272 252 254 248 210 194 167 145 84 283 274 250 131 139 168 176 191 184 175 174 176 310 77 152 197 189 194 192 190 229 227 233 238 181 195 236 217 152 186 193 187 200 228 224 274 235 199 221 268 58 37 65 59 274 226 248 257 272 296 274 189 170 247 278 248 196 208 219 227 232 239 250 246 232 243 256 261 261 261
287 290 293 297 302 306 305 293 284 271 251 245 220 191 168 154 144 79 248 256 189 126 144 161 171 186 160 153 182 201 297 56 216 172 175 192 190 183 243 238 251 263 197 214 244 279 73 157 201 188 203 227 190 45 19 214 222 138 110 84 80 87 89 150 243 273 281 275 260 187 164 220 278 263 183 197 212 214 223 229 237 247 233 234 251 261 266 263
282 286 288 290 295 298 304 303 288 271 250 226 200 174 153 152 155 243 234 239 292 131 125 153 170 161 154 158 200 212 211 203 116 133 155 189 194 200 281 260 251 267 235 239 260 263 122 93 23 218 217 207 100 75 28 28 123 137 145 124 116 190 183 199 237 260 272 266 245 179 174 206 269 264 158 176 202 200 200 205 224 240 228 224 243 254 260 260
279 280 280 283 286 289 297 301 290 275 244 214 184 161 155 158 197 238 232 268 343 170 132 170 176 150 169 184 198 193 197 209 151 154 174 168 187 203 220 209 199 238 247 242 250 239 185 168 203 204 174 126 110 106 63 67 143 166 177 196 231 227 198 213 212 166 242 263 219 170 182 201 233 230 154 178 198 196 182 187 240 250 229 223 234 246 254 255
277 276 274 275 278 280 284 288 287 273 239 203 171 166 175 208 224 233 221 70 47 190 153 175 180 175 195 205 209 175 182 205 179 181 198 177 187 198 201 204 176 200 242 221 224 224 202 204 187 140 149 175 176 157 115 127 183 200 195 193 238 247 228 233 215 191 232 253 112 156 186 211 234 244 222 208 197 198 192 213 255 257 247 238 221 226 244 250
274 273 270 267 270 275 278 282 282 260 224 188 174 181 209 244 233 222 187 162 208 175 124 134 170 181 192 203 211 172 173 210 175 187 204 187 206 212 209 218 206 240 259 208 219 217 220 222 166 160 191 188 189 198 207 194 182 193 191 181 208 232 249 253 244 240 244 242 127 138 188 243 257 248 221 225 217 205 207 225 238 240 243 239 214 218 240 247
271 270 267 264 266 269 267 268 271 250 208 183 183 194 209 238 241 176 182 200 199 96 97 96 149 173 199 213 197 167 199 217 166 179 199 185 211 223 213 219 218 237 272 232 261 222 251 272 175 172 168 171 188 211 223 133 170 194 193 195 217 230 243 251 259 262 272 297 232 162 182 248 274 217 196 215 221 211 214 223 227 234 238 235 223 229 240 242
267 267 264 261 258 258 257 254 256 236 195 181 188 203 206 234 238 192 205 201 167 149 124 98 157 174 215 223 192 199 223 218 171 175 197 196 209 214 205 206 202 200 189 218 248 193 243 262 165 125 94 162 183 211 132 107 177 190 178 210 234 234 229 246 281 285 319 314 272 185 216 246 262 261 186 195 214 207 212 219 218 231 235 232 231 238 242 241
260 259 257 253 249 252 250 240 240 222 193 184 195 211 218 237 231 208 210 180 177 166 134 167 198 193 224 210 190 212 219 210 181 181 209 212 224 222 205 193 188 188 186 191 211 197 233 263 126 93 356 169 170 332 161 206 211 164 175 206 222 354 234 243 277 301 113 280 270 217 247 258 264 261 189 173 200 202 204 212 212 225 229 224 229 237 241 242
255 249 249 248 246 248 242 229 227 211 193 191 223 221 227 243 225 218 198 159 179 163 157 215 208 193 221 218 202 194 176 186 186 187 212 203 223 216 197 199 185 185 197 199 214 234 237 270 174 162 237 159 33 3 301 301 329 143 191 206 100 48 333 241 262 283 246 265 272 261 267 270 274 271 176 173 197 200 200 206 210 219 216 215 230 237 241 244
256 247 245 247 246 243 235 222 213 199 185 188 239 236 242 241 230 228 179 137 144 172 194 227 207 188 214 230 219 174 166 190 175 180 218 205 217 189 174 196 187 186 205 207 217 270 230 261 230 149 14 86 76 289 223 244 224 152 286 290 75 214 204 197 218 247 250 257 271 276 278 272 260 260 181 180 194 195 198 205 210 215 210 213 230 237 242 243
256 245 244 248 244 239 233 218 202 190 176 189 225 233 244 245 248 244 204 183 196 198 214 231 223 216 223 234 239 172 171 191 172 178 213 207 216 177 162 179 187 194 205 199 207 248 181 235 241 54 360 85 133 216 202 180 165 290 294 267 235 261 223 199 203 220 238 247 270 282 285 276 251 238 192 179 187 196 201 204 206 210 214 215 223 234 240 240
249 240 250 251 246 241 229 210 191 181 174 207 221 233 250 253 256 244 226 218 218 215 230 239 231 235 237 235 243 215 194 203 190 199 212 194 212 197 169 169 174 197 204 193 202 219 130 227 239 159 326 231 201 198 193 190 179 182 227 219 199 205 274 278 237 227 233 242 255 270 276 274 262 140 181 178 183 198 199 197 198 202 212 215 218 230 238 240
247 236 248 248 255 237 212 193 177 183 187 227 232 245 253 263 277 251 237 234 233 235 247 255 241 243 247 241 240 227 213 222 212 217 223 205 220 223 175 179 173 147 159 184 208 208 171 211 228 211 201 224 221 199 195 198 185 182 195 199 197 189 184 236 238 223 215 235 240 244 263 270 260 99 153 179 177 196 196 186 187 197 207 213 220 230 237 241
252 237 236 240 255 216 196 181 180 201 196 222 229 253 263 258 269 259 241 233 239 252 257 259 252 249 250 247 248 233 209 222 222 220 228 220 227 224 177 182 176 148 148 185 204 199 185 167 223 231 230 236 231 180 185 205 181 225 221 205 204 191 187 211 223 214 193 222 242 241 253 266 260 105 118 157 154 201 212 181 181 209 210 215 224 230 237 242
245 240 232 238 248 211 193 183 216 204 217 250 246 269 269 258 266 259 239 227 228 234 235 240 244 242 242 244 248 241 222 225 227 226 232 231 232 227 188 177 169 160 173 200 182 168 144 145 225 238 255 261 244 100 78 84 151 248 247 220 215 210 209 220 228 237 214 209 229 235 242 261 267 109 120 226 199 219 229 201 209 230 221 222 227 228 233 237
249 242 221 220 224 207 195 196 226 209 236 259 265 264 256 258 263 249 237 225 218 216 228 234 238 238 238 240 242 240 235 234 234 233 236 240 236 227 202 184 172 178 199 200 174 164 168 195 212 229 253 259 252 205 184 173 190 218 227 217 219 221 222 235 253 267 248 232 233 239 243 253 258 128 206 260 232 193 213 216 221 229 222 223 227 226 229 233
257 245 215 204 201 200 204 210 210 211 220 229 242 247 246 255 250 241 242 239 233 238 244 248 257 252 240 239 244 241 237 241 244 239 241 248 245 231 215 197 186 196 216 214 189 171 178 200 191 212 234 226 231 238 225 156 182 211 224 217 216 216 215 223 233 225 237 239 235 240 250 254 264 275 272 268 253 214 223 219 209 216 223 230 234 228 225 228
254 239 210 197 199 207 222 221 211 207 209 218 227 234 237 244 246 241 240 240 239 240 249 273 308 299 254 239 249 253 246 245 249 250 252 254 250 27 298 223 210 218 239 247 209 171 182 219 200 214 231 227 235 246 248 208 177 186 209 215 213 211 210 213 225 227 235 244 237 236 247 255 262 268 271 272 270 266 266 259 239 233 235 239 241 234 227 228
251 229 183 187 206 222 243 240 222 209 204 211 205 204 223 228 238 238 224 222 230 228 236 256 248 248 248 236 243 252 247 245 247 249 253 257 254 264 4 274 246 264 303 330 306 202 233 238 222 229 237 237 246 254 258 260 242 209 198 208 211 211 209 212 225 229 233 248 246 238 244 253 255 254 264 271 272 272 273 272 273 272 265 254 240 232 231 233
254 262 225 217 211 210 226 231 230 224 210 210 206 215 227 224 226 227 214 219 226 212 205 234 227 227 234 234 234 240 241 245 247 242 243 251 251 252 267 229 223 252 285 344 355 40 236 252 245 250 254 252 257 262 263 266 263 250 229 215 210 208 209 217 227 230 227 238 249 246 248 254 255 252 258 263 267 272 273 274 276 277 278 275 253 233 238 243
255 272 271 262 254 233 231 228 225 222 216 216 215 218 227 228 225 224 214 212 220 204 200 219 224 222 227 231 233 236 233 234 240 238 233 237 241 245 250 239 220 157 166 213 355 141 204 257 252 257 266 265 263 265 264 265 268 268 262 252 241 229 225 228 231 229 227 237 247 251 254 258 260 259 258 260 266 272 276 279 280 277 280 281 267 245 253 261
253 267 295 300 288 284 277 254 241 237 225 223 224 217 222 231 231 229 218 211 216 203 199 219 231 227 224 226 229 232 230 228 236 240 230 224 229 231 231 229 213 96 107 168 264 186 211 234 239 253 268 262 258 261 261 262 265 267 269 273 271 260 250 246 242 228 231 242 247 251 256 260 260 258 259 263 269 271 273 277 279 277 277 277 271 263 268 272
264 272 293 313 302 275 276 260 244 250 235 222 228 227 229 233 232 235 234 225 225 219 205 217 229 232 234 232 228 234 236 233 238 243 238 233 227 218 224 213 179 157 154 178 197 187 210 234 239 247 256 250 248 251 253 256 259 261 264 263 257 254 256 256 249 239 239 247 253 253 255 254 251 255 262 267 267 265 266 270 272 273 273 275 278 277 273 273
267 271 279 295 297 254 264 255 234 244 243 226 228 231 238 242 236 238 247 235 228 230 229 226 228 234 239 235 232 237 240 239 241 245 246 248 244 226 212 196 176 171 177 189 205 193 192 222 228 227 244 248 243 246 251 254 256 251 243 242 244 248 254 255 253 251 247 244 249 249 242 242 251 259 265 265 262 260 260 261 263 268 272 277 281 276 272 274
Height
1557 1557 1556 1555 1554 1554 1553 1553 1552 1551 1551 1551 1550 1550 1549 1549 1548 1548 1547 1547 1546 1545 1545 1544 1544 1543 1542 1542 1541 1541 1541 1540 1540 1539 1538 1537 1537 1537 1537 1537 1536 1536 1535 1535 1535 1535 1535 1535 1535 1535 1536 1535 1535 1534 1534 1534 1533 1534 1531 1530 1528 1522 1520 1518 1517 1518 1518 1517 1518 1520 1521 1521 1520 1522 1523 1523 1524 1524 1524 1523 1523 1523 1522 1522 1521 1523 1522 1521
1557 1556 1555 1555 1554 1554 1553 1552 1552 1551 1551 1550 1549 1549 1548 1548 1547 1547 1546 1546 1546 1545 1544 1544 1543 1543 1542 1542 1541 1541 1540 1540 1539 1538 1537 1536 1536 1536 1536 1536 1536 1535 1535 1535 1534 1534 1535 1535 1535 1535 1536 1535 1534 1534 1534 1533 1533 1532 1528 1528 1525 1518 1516 1516 1516 1516 1517 1518 1517 1519 1521 1520 1520 1520 1522 1523 1522 1522 1522 1520 1522 1522 1520 1520 1519 1521 1520 1519
1556 1556 1555 1555 1554 1554 1553 1552 1552 1551 1550 1550 1549 1548 1548 1547 1547 1546 1546 1545 1545 1544 1544 1543 1543 1542 1542 1541 1541 1540 1540 1539 1538 1535 1535 1535 1535 1535 1535 1535 1535 1535 1535 1534 1534 1534 1534 1534 1535 1534 1535 1534 1532 1533 1533 1532 1532 1529 1528 1527 1521 1515 1515 1515 1516 1517 1518 1518 1518 1518 1520 1520 1520 1520 1522 1521 1519 1518 1517 1516 1518 1518 1517 1517 1516 1517 1518 1517
1556 1556 1555 1555 1554 1553 1553 1552 1551 1551 1550 1550 1549 1548 1547 1547 1546 1545 1545 1544 1544 1543 1543 1542 1542 1542 1541 1540 1540 1540 1539 1539 1535 1532 1533 1534 1534 1534 1534 1534 1535 1534 1534 1534 1534 1534 1533 1533 1533 1533 1534 1532 1531 1532 1531 1530 1530 1528 1528 1524 1518 1516 1517 1516 1516 1517 1518 1518 1518 1518 1519 1519 1519 1520 1520 1520 1519 1514 1511 1512 1513 1513 1512 1514 1514 1514 1515 1515
1556 1555 1555 1554 1554 1553 1553 1552 1551 1551 1550 1549 1548 1548 1547 1546 1546 1545 1544 1544 1543 1542 1542 1541 1541 1541 1540 1540 1540 1539 1540 1538 1532 1530 1531 1532 1533 1533 1533 1533 1534 1534 1533 1534 1533 1533 1532 1532 1532 1533 1533 1530 1529 1530 1528 1527 1528 1527 1523 1519 1517 1518 1518 1516 1517 1518 1518 1519 1518 1518 1518 1517 1517 1519 1517 1518 1515 1508 1507 1509 1509 1510 1511 1512 1511 1511 1512 1513
1555 1555 1554 1554 1553 1553 1552 1552 1551 1550 1550 1549 1548 1547 1547 1546 1545 1544 1544 1543 1542 1542 1541 1540 1540 1540 1539 1539 1539 1538 1539 1536 1530 1530 1531 1531 1532 1532 1532 1532 1533 1533 1533 1533 1532 1533 1532 1532 1532 1532 1531 1527 1527 1526 1524 1525 1526 1525 1519 1516 1517 1517 1517 1516 1517 1518 1518 1518 1517 1517 1516 1516 1517 1515 1514 1514 1508 1504 1506 1506 1507 1509 1510 1510 1509 1509 1509 1510
1554 1554 1554 1553 1553 1552 1552 1552 1551 1550 1549 1549 1548 1547 1546 1545 1545 1544 1543 1542 1542 1541 1540 1539 1539 1538 1538 1538 1538 1537 1537 1533 1529 1530 1530 1530 1531 1531 1531 1531 1532 1532 1532 1532 1532 1532 1532 1532 1531 1530 1528 1526 1524 1523 1523 1524 1525 1524 1519 1516 1517 1517 1516 1516 1517 1517 1517 1518 1516 1516 1516 1515 1515 1512 1511 1508 1502 1503 1506 1505 1505 1507 1507 1508 1506 1506 1507 1507
1553 1553 1553 1552 1552 1552 1551 1551 1550 1550 1549 1548 1547 1546 1546 1545 1544 1543 1542 1542 1541 1540 1539 1539 1538 1537 1537 1537 1536 1536 1534 1530 1529 1529 1529 1529 1529 1529 1530 1530 1530 1530 1530 1531 1531 1531 1531 1531 1529 1529 1527 1524 1523 1522 1523 1524 1523 1522 1519 1515 1515 1516 1515 1516 1516 1516 1516 1516 1516 1516 1515 1514 1513 1512 1508 1501 1498 1501 1503 1503 1503 1503 1504 1505 1504 1504 1504 1504
1552 1552 1551 1551 1551 1551 1550 1550 1550 1549 1548 1548 1547 1546 1545 1544 1543 1542 1542 1541 1540 1539 1538 1538 1537 1536 1536 1535 1536 1534 1530 1528 1528 1528 1528 1528 1528 1528 1528 1528 1529 1529 1529 1529 1530 1530 1530 1529 1528 1528 1526 1523 1523 1522 1523 1524 1520 1518 1517 1515 1515 1515 1514 1514 1514 1514 1515 1514 1515 1515 1513 1512 1511 1511 1504 1494 1496 1498 1499 1501 1500 1500 1500 1501 1501 1501 1501 1502
1551 1550 1550 1550 1550 1549 1549 1549 1548 1548 1547 1547 1546 1545 1544 1543 1543 1542 1541 1540 1539 1538 1537 1537 1535 1535 1534 1534 1535 1532 1527 1527 1528 1527 1527 1527 1527 1527 1527 1527 1528 1528 1528 1528 1529 1529 1529 1529 1527 1527 1527 1524 1522 1521 1522 1522 1519 1517 1517 1516 1515 1514 1513 1513 1512 1512 1513 1512 1513 1512 1511 1509 1510 1512 1499 1488 1492 1494 1495 1498 1497 1497 1497 1497 1498 1498 1498 1498
1549 1549 1548 1548 1548 1548 1547 1547 1547 1546 1546 1545 1545 1544 1543 1542 1542 1541 1540 1539 1538 1537 1536 1536 1534 1534 1533 1533 1534 1529 1525 1526 1526 1525 1526 1525 1525 1525 1525 1526 1526 1527 1527 1527 1528 1528 1528 1527 1527 1527 1526 1523 1522 1521 1521 1520 1519 1518 1518 1516 1513 1512 1511 1511 1510 1510 1511 1510 1510 1510 1510 1507 1509 1508 1492 1485 1490 1491 1492 1494 1494 1494 1493 1494 1495 1495 1495 1494
1547 1547 1547 1546 1546 1546 1546 1545 1545 1545 1544 1544 1544 1543 1542 1541 1540 1540 1539 1538 1537 1536 1535 1534 1534 1533 1532 1532 1530 1526 1525 1525 1524 1524 1524 1524 1524 1524 1524 1525 1525 1525 1526 1527 1526 1526 1527 1526 1527 1526 1524 1523 1521 1520 1520 1519 1519 1519 1519 1516 1510 1508 1507 1505 1505 1507 1508 1507 1507 1510 1509 1502 1502 1496 1482 1483 1489 1488 1490 1491 1492 1491 1490 1492 1492 1492 1492 1491
1546 1545 1545 1545 1544 1544 1544 1543 1543 1543 1542 1542 1542 1541 1541 1539 1539 1538 1537 1537 1536 1535 1534 1533 1533 1532 1532 1529 1525 1524 1524 1523 1523 1522 1522 1522 1522 1522 1523 1523 1523 1524 1524 1525 1525 1525 1526 1525 1525 1525 1524 1523 1521 1520 1520 1519 1520 1519 1517 1516 1511 1508 1502 1496 1500 1504 1505 1506 1505 1510 1506 1490 1486 1485 1478 1483 1485 1485 1488 1488 1489 1488 1487 1488 1488 1489 1488 1487
1544 1543 1543 1543 1542 1542 1542 1542 1541 1540 1540 1540 1540 1540 1539 1538 1538 1536 1536 1535 1534 1534 1533 1532 1532 1531 1530 1526 1522 1523 1522 1521 1521 1520 1520 1520 1520 1521 1521 1521 1522 1523 1523 1523 1523 1524 1524 1524 1525 1524 1523 1523 1521 1521 1519 1518 1519 1516 1515 1514 1512 1510 1500 1493 1498 1501 1503 1504 1503 1509 1506 1486 1477 1478 1477 1480 1482 1483 1484 1484 1485 1485 1484 1484 1484 1485 1484 1483
1542 1541 1541 1541 1540 1540 1540 1540 1539 1538 1538 1537 1538 1537 1537 1536 1535 1535 1534 1533 1532 1532 1531 1531 1530 1530 1529 1523 1520 1520 1519 1519 1518 1517 1518 1518 1519 1519 1519 1520 1521 1521 1522 1522 1522 1523 1523 1523 1523 1522 1522 1521 1522 1521 1518 1515 1512 1512 1516 1512 1505 1506 1500 1493 1497 1497 1497 1501 1502 1506 1503 1486 1476 1475 1474 1477 1480 1481 1481 1481 1482 1482 1481 1480 1480 1480 1479 1479
1540 1540 1539 1538 1538 1538 1537 1537 1536 1536 1535 1535 1536 1535 1535 1534 1533 1533 1532 1531 1531 1530 1530 1529 1528 1529 1528 1521 1518 1518 1517 1517 1516 1516 1516 1516 1518 1518 1518 1519 1519 1520 1520 1520 1521 1522 1522 1522 1522 1521 1521 1520 1520 1519 1517 1514 1510 1507 1512 1510 1501 1500 1496 1491 1495 1495 1494 1498 1501 1501 1495 1483 1475 1474 1474 1476 1478 1479 1479 1478 1479 1478 1477 1476 1475 1474 1474 1474
1538 1538 1537 1537 1536 1535 1535 1534 1533 1533 1533 1533 1533 1533 1533 1532 1531 1530 1530 1529 1529 1527 1528 1528 1527 1528 1524 1518 1517 1515 1514 1514 1514 1514 1514 1515 1516 1516 1517 1518 1518 1519 1519 1520 1520 1520 1521 1521 1521 1519 1518 1518 1516 1516 1521 1521 1512 1502 1503 1504 1499 1495 1493 1491 1492 1494 1494 1496 1496 1497 1494 1483 1475 1474 1475 1475 1476 1476 1476 1475 1475 1474 1472 1472 1471 1468 1468 1468
1536 1536 1535 1535 1534 1534 1533 1532 1531 1531 1531 1530 1530 1530 1530 1530 1529 1528 1527 1526 1526 1526 1526 1525 1526 1528 1521 1514 1515 1514 1513 1513 1513 1513 1513 1514 1515 1515 1516 1517 1518 1518 1519 1519 1519 1519 1520 1520 1519 1518 1515 1514 1513 1514 1520 1516 1505 1499 1497 1498 1495 1491 1490 1488 1487 1490 1493 1495 1494 1493 1491 1482 1474 1472 1472 1473 1474 1473 1471 1471 1470 1468 1466 1467 1466 1463 1462 1461
1534 1534 1533 1533 1532 1532 1531 1530 1530 1529 1528 1528 1528 1527 1527 1527 1526 1524 1523 1523 1523 1523 1522 1521 1522 1523 1517 1512 1513 1513 1512 1512 1512 1512 1512 1513 1514 1514 1515 1516 1517 1518 1518 1518 1516 1517 1518 1517 1519 1518 1512 1507 1506 1506 1507 1501 1496 1496 1495 1496 1496 1494 1490 1484 1484 1488 1490 1493 1493 1489 1486 1478 1472 1470 1468 1469 1470 1469 1467 1466 1465 1462 1460 1461 1461 1459 1457 1456
1531 1531 1531 1530 1530 1530 1528 1528 1528 1527 1526 1525 1525 1525 1525 1525 1524 1521 1520 1519 1518 1518 1518 1517 1516 1515 1514 1512 1512 1512 1511 1511 1511 1510 1511 1512 1513 1514 1514 1516 1517 1517 1516 1514 1514 1514 1515 1517 1515 1509 1501 1498 1498 1496 1495 1494 1493 1495 1495 1497 1496 1496 1490 1481 1483 1490 1489 1491 1488 1482 1481 1475 1468 1466 1464 1465 1466 1465 1463 1461 1459 1456 1455 1455 1455 1453 1452 1451
1529 1529 1528 1528 1528 1527 1526 1526 1526 1525 1525 1524 1524 1524 1524 1524 1523 1520 1518 1515 1514 1514 1514 1514 1514 1512 1511 1511 1511 1510 1511 1510 1509 1508 1509 1510 1512 1513 1512 1513 1515 1514 1511 1510 1512 1512 1515 1516 1506 1496 1492 1492 1493 1492 1493 1494 1494 1495 1497 1497 1495 1494 1487 1479 1484 1490 1490 1492 1486 1478 1478 1472 1465 1463 1461 1461 1462 1460 1458 1455 1452 1450 1450 1451 1449 1447 1447 1449
1527 1526 1526 1526 1525 1525 1524 1524 1523 1523 1523 1522 1522 1522 1522 1522 1521 1520 1519 1515 1510 1510 1510 1510 1510 1508 1508 1509 1509 1509 1510 1508 1506 1505 1506 1509 1510 1510 1509 1509 1509 1507 1506 1509 1511 1513 1514 1509 1496 1489 1491 1493 1493 1493 1495 1495 1495 1496 1497 1499 1497 1490 1483 1480 1485 1490 1491 1492 1485 1478 1477 1470 1462 1460 1458 1456 1455 1455 1452 1449 1448 1447 1446 1445 1443 1443 1444 1446
1525 1524 1524 1524 1523 1523 1522 1521 1521 1520 1520 1520 1520 1519 1519 1519 1519 1519 1519 1516 1508 1505 1506 1505 1505 1505 1505 1505 1505 1507 1506 1504 1502 1501 1502 1505 1506 1507 1507 1505 1504 1503 1503 1505 1505 1509 1508 1499 1489 1489 1492 1493 1493 1495 1497 1497 1496 1496 1496 1499 1495 1486 1485 1484 1486 1490 1490 1488 1484 1480 1479 1469 1459 1455 1451 1447 1446 1448 1447 1444 1445 1444 1441 1439 1439 1440 1441 1441
1523 1523 1522 1521 1521 1521 1519 1519 1518 1518 1518 1517 1517 1517 1517 1517 1517 1517 1517 1513 1504 1500 1500 1500 1500 1501 1500 1500 1501 1502 1501 1499 1498 1497 1497 1500 1502 1504 1503 1501 1501 1500 1498 1497 1498 1499 1496 1490 1489 1491 1492 1493 1494 1494 1497 1498 1494 1492 1494 1494 1489 1483 1484 1483 1483 1487 1484 1482 1484 1484 1476 1459 1448 1446 1441 1439 1442 1443 1443 1442 1442 1439 1435 1434 1435 1436 1437 1437
1522 1522 1520 1520 1520 1518 1518 1517 1515 1516 1516 1515 1515 1515 1515 1516 1516 1517 1517 1512 1501 1495 1495 1495 1495 1495 1494 1495 1496 1497 1497 1495 1494 1493 1494 1496 1499 1500 1499 1500 1500 1496 1493 1493 1495 1493 1489 1488 1490 1492 1493 1494 1494 1493 1494 1495 1492 1490 1487 1485 1483 1481 1481 1482 1485 1489 1487 1483 1483 1485 1476 1448 1432 1436 1435 1435 1441 1441 1441 1441 1439 1435 1431 1430 1430 1430 1432 1434
1521 1520 1519 1519 1518 1517 1517 1515 1514 1515 1513 1513 1514 1513 1515 1515 1516 1517 1515 1510 1498 1489 1490 1491 1490 1489 1489 1490 1491 1495 1497 1492 1489 1491 1492 1495 1496 1497 1498 1497 1496 1494 1491 1491 1492 1489 1487 1488 1490 1491 1493 1494 1496 1493 1488 1490 1492 1489 1485 1482 1483 1483 1484 1485 1488 1493 1491 1482 1479 1484 1485 1459 1432 1432 1434 1432 1438 1438 1437 1438 1433 1432 1430 1427 1427 1427 1428 1430
1519 1519 1518 1517 1517 1516 1516 1514 1514 1513 1513 1513 1512 1513 1515 1514 1516 1516 1515 1511 1493 1478 1482 1486 1485 1484 1485 1486 1487 1492 1494 1488 1486 1489 1490 1492 1494 1496 1496 1492 1492 1493 1491 1494 1495 1488 1483 1489 1491 1491 1493 1494 1495 1490 1483 1486 1490 1488 1487 1488 1486 1486 1488 1489 1490 1494 1488 1481 1478 1479 1488 1479 1445 1431 1431 1430 1434 1435 1432 1432 1428 1427 1428 1426 1424 1425 1426 1427
1518 1518 1516 1516 1516 1515 1515 1514 1513 1512 1513 1512 1511 1514 1513 1513 1517 1514 1518 1518 1489 1469 1476 1481 1481 1482 1482 1485 1485 1486 1487 1484 1485 1487 1487 1490 1492 1494 1494 1489 1488 1489 1489 1494 1493 1483 1481 1488 1490 1490 1493 1492 1488 1486 1482 1483 1486 1488 1491 1490 1488 1489 1490 1490 1492 1492 1487 1486 1483 1474 1483 1485 1450 1423 1426 1426 1429 1432 1429 1428 1425 1422 1424 1423 1422 1423 1423 1424
1516 1516 1515 1515 1515 1514 1514 1513 1512 1512 1511 1511 1512 1513 1512 1515 1516 1511 1522 1518 1480 1465 1475 1477 1479 1481 1480 1484 1485 1483 1484 1484 1485 1486 1487 1490 1490 1491 1492 1489 1488 1488 1489 1490 1486 1482 1483 1487 1487 1487 1489 1485 1483 1486 1487 1485 1485 1489 1492 1489 1490 1492 1490 1493 1493 1491 1493 1491 1481 1471 1477 1480 1446 1416 1422 1429 1428 1429 1425 1423 1422 1418 1420 1421 1420 1421 1421 1421
1515 1514 1514 1513 1513 1513 1513 1511 1511 1511 1510 1512 1512 1512 1513 1515 1513 1516 1523 1503 1469 1467 1477 1475 1477 1478 1478 1483 1483 1482 1484 1484 1484 1486 1489 1490 1490 1490 1490 1489 1490 1489 1489 1489 1486 1484 1485 1487 1488 1486 1483 1481 1484 1489 1490 1489 1488 1489 1491 1489 1492 1492 1490 1494 1491 1491 1498 1484 1465 1462 1467 1472 1452 1419 1417 1425 1422 1419 1417 1418 1418 1415 1416 1418 1418 1419 1419 1419
1513 1513 1512 1511 1511 1512 1511 1511 1511 1510 1511 1512 1511 1513 1514 1512 1512 1514 1505 1481 1467 1471 1474 1474 1475 1474 1474 1476 1475 1478 1481 1481 1483 1485 1487 1488 1489 1490 1490 1489 1491 1492 1491 1490 1486 1482 1484 1487 1485 1482 1480 1481 1485 1488 1490 1491 1490 1489 1489 1488 1490 1489 1489 1494 1492 1497 1500 1473 1450 1451 1455 1463 1453 1423 1414 1415 1412 1410 1410 1412 1414 1412 1413 1414 1414 1416 1416 1416
1511 1511 1510 1509 1509 1510 1510 1511 1509 1510 1511 1511 1513 1513 1512 1513 1509 1497 1482 1472 1471 1468 1464 1469 1472 1471 1472 1471 1470 1474 1477 1477 1479 1480 1481 1484 1485 1485 1484 1482 1482 1488 1487 1483 1480 1478 1479 1478 1476 1478 1481 1481 1482 1485 1490 1492 1491 1490 1488 1489 1493 1490 1489 1492 1490 1490 1485 1462 1449 1451 1454 1453 1435 1414 1412 1411 1408 1408 1405 1407 1410 1409 1410 1411 1411 1413 1413 1414
1508 1508 1507 1506 1506 1507 1509 1509 1508 1510 1510 1511 1514 1512 1513 1515 1494 1471 1469 1470 1466 1461 1460 1465 1467 1469 1471 1470 1470 1472 1473 1473 1474 1476 1477 1479 1481 1479 1478 1475 1475 1479 1477 1474 1476 1476 1473 1472 1474 1478 1477 1476 1476 1477 1481 1483 1486 1486 1482 1484 1489 1488 1490 1490 1481 1473 1463 1452 1451 1455 1457 1448 1425 1408 1407 1405 1404 1404 1402 1404 1407 1406 1408 1408 1408 1410 1410 1411
1505 1505 1504 1503 1503 1504 1506 1508 1508 1508 1509 1511 1513 1512 1517 1509 1476 1457 1462 1462 1458 1460 1462 1465 1467 1470 1471 1469 1467 1467 1471 1471 1470 1474 1476 1476 1480 1477 1474 1472 1472 1474 1475 1476 1474 1472 1473 1467 1464 1469 1466 1465 1468 1465 1465 1468 1476 1478 1472 1474 1477 1475 1480 1480 1469 1461 1456 1450 1451 1459 1456 1437 1417 1403 1395 1394 1396 1398 1400 1402 1403 1404 1404 1405 1405 1407 1408 1409
1502 1501 1500 1499 1498 1499 1502 1505 1507 1507 1509 1510 1511 1512 1510 1490 1464 1458 1459 1454 1456 1461 1463 1466 1468 1470 1469 1467 1467 1464 1466 1467 1466 1471 1473 1472 1471 1467 1464 1464 1467 1470 1475 1478 1471 1468 1471 1460 1453 1461 1460 1459 1463 1461 1461 1465 1471 1473 1470 1474 1474 1465 1466 1467 1459 1457 1466 1465 1453 1451 1443 1415 1400 1394 1387 1391 1393 1393 1398 1398 1399 1401 1399 1401 1403 1403 1404 1405
1498 1497 1497 1493 1491 1494 1498 1502 1505 1507 1507 1507 1510 1505 1488 1465 1455 1456 1452 1450 1454 1457 1463 1468 1466 1468 1466 1462 1465 1465 1463 1465 1466 1469 1468 1465 1462 1457 1454 1454 1457 1462 1465 1469 1465 1462 1465 1457 1456 1464 1462 1461 1464 1462 1463 1465 1466 1469 1472 1472 1467 1461 1461 1466 1464 1460 1471 1472 1444 1429 1425 1405 1396 1391 1382 1388 1391 1390 1394 1394 1394 1395 1394 1397 1399 1398 1400 1401
1492 1492 1490 1485 1485 1489 1494 1498 1502 1505 1506 1507 1505 1489 1466 1453 1451 1452 1449 1450 1452 1452 1459 1463 1458 1459 1460 1456 1458 1461 1464 1465 1466 1466 1463 1460 1454 1447 1449 1449 1448 1452 1453 1455 1456 1453 1455 1455 1458 1464 1462 1464 1466 1465 1466 1465 1463 1467 1470 1465 1460 1464 1466 1467 1471 1467 1468 1467 1436 1416 1415 1404 1399 1394 1382 1385 1389 1387 1389 1388 1389 1391 1392 1395 1395 1395 1397 1398
1487 1487 1482 1478 1479 1484 1490 1495 1496 1498 1502 1506 1500 1478 1459 1453 1450 1450 1451 1451 1451 1452 1455 1455 1450 1449 1450 1450 1448 1452 1460 1460 1460 1463 1458 1452 1444 1434 1440 1446 1444 1445 1446 1449 1453 1451 1453 1455 1458 1464 1466 1465 1468 1468 1466 1465 1466 1465 1465 1463 1461 1467 1466 1464 1472 1471 1467 1464 1438 1415 1409 1398 1390 1387 1383 1386 1387 1383 1384 1384 1386 1388 1389 1391 1391 1392 1394 1395
1485 1484 1477 1472 1476 1481 1486 1489 1489 1493 1497 1499 1492 1473 1458 1452 1449 1451 1452 1450 1451 1453 1451 1448 1447 1445 1444 1445 1443 1446 1453 1451 1452 1457 1451 1444 1437 1429 1432 1438 1439 1441 1442 1447 1452 1450 1452 1455 1457 1465 1469 1466 1467 1467 1463 1462 1467 1469 1467 1464 1461 1461 1458 1455 1459 1456 1453 1455 1441 1425 1410 1385 1370 1370 1374 1379 1380 1379 1381 1381 1382 1384 1385 1387 1388 1389 1391 1392
1481 1480 1473 1470 1474 1479 1481 1482 1484 1489 1490 1485 1478 1466 1457 1452 1451 1452 1453 1450 1450 1450 1448 1445 1445 1445 1442 1441 1441 1442 1446 1444 1443 1446 1442 1436 1432 1428 1428 1430 1434 1439 1440 1445 1448 1447 1453 1455 1453 1463 1472 1465 1457 1453 1450 1448 1454 1463 1466 1463 1460 1459 1457 1456 1451 1441 1441 1446 1442 1438 1418 1375 1355 1361 1366 1371 1374 1375 1377 1378 1379 1381 1381 1383 1385 1386 1388 1389
1476 1474 1470 1469 1473 1476 1479 1480 1479 1481 1482 1477 1470 1462 1459 1455 1452 1452 1452 1452 1450 1447 1447 1446 1444 1443 1440 1439 1439 1437 1440 1442 1439 1438 1435 1430 1428 1427 1426 1425 1429 1435 1441 1447 1448 1446 1451 1452 1449 1455 1460 1452 1439 1434 1434 1433 1435 1442 1447 1447 1446 1448 1453 1458 1451 1438 1438 1439 1431 1434 1420 1374 1352 1360 1363 1365 1370 1371 1373 1374 1376 1378 1379 1380 1382 1383 1385 1386
1473 1470 1466 1467 1471 1474 1476 1476 1475 1476 1476 1471 1462 1458 1459 1457 1453 1452 1452 1452 1451 1448 1447 1446 1443 1441 1439 1437 1436 1435 1437 1438 1436 1434 1429 1425 1424 1423 1422 1423 1425 1428 1435 1441 1441 1438 1442 1446 1446 1444 1437 1431 1428 1429 1431 1431 1431 1433 1433 1432 1432 1434 1438 1443 1442 1434 1436 1437 1425 1425 1417 1377 1352 1359 1364 1365 1368 1370 1371 1371 1372 1376 1377 1377 1379 1380 1381 1383
1469 1467 1465 1466 1468 1472 1474 1474 1474 1475 1470 1463 1457 1456 1457 1456 1453 1452 1451 1450 1449 1448 1447 1444 1442 1440 1437 1436 1436 1435 1435 1433 1429 1427 1426 1423 1421 1419 1420 1423 1424 1426 1428 1430 1433 1435 1440 1444 1445 1440 1430 1423 1424 1430 1432 1432 1434 1434 1430 1428 1427 1426 1424 1424 1425 1424 1427 1429 1421 1420 1415 1382 1355 1360 1367 1367 1368 1370 1371 1370 1370 1373 1374 1375 1376 1376 1377 1378
1466 1464 1464 1463 1464 1467 1469 1469 1470 1470 1467 1463 1461 1458 1456 1454 1452 1450 1449 1448 1447 1446 1444 1440 1438 1436 1435 1435 1435 1433 1433 1431 1425 1421 1423 1422 1418 1417 1419 1420 1422 1424 1423 1422 1425 1431 1437 1439 1440 1443 1441 1434 1429 1429 1430 1434 1435 1429 1423 1423 1421 1420 1421 1421 1421 1424 1423 1415 1407 1409 1405 1380 1358 1360 1365 1365 1366 1367 1368 1369 1368 1368 1370 1371 1372 1371 1372 1373
1464 1461 1460 1460 1459 1457 1455 1455 1457 1460 1462 1462 1460 1456 1453 1452 1449 1447 1447 1446 1445 1445 1443 1439 1437 1435 1433 1434 1433 1430 1429 1430 1425 1420 1421 1420 1417 1417 1418 1418 1418 1419 1417 1418 1419 1422 1426 1428 1431 1438 1441 1439 1430 1417 1411 1419 1426 1423 1418 1417 1417 1418 1420 1419 1422 1426 1418 1401 1396 1400 1392 1370 1359 1361 1360 1359 1362 1365 1365 1365 1365 1365 1365 1366 1367 1367 1367 1367
1461 1457 1456 1457 1456 1451 1445 1445 1447 1448 1451 1455 1454 1451 1451 1449 1443 1441 1443 1444 1443 1443 1443 1441 1439 1438 1435 1434 1434 1431 1428 1427 1425 1422 1421 1419 1417 1418 1419 1418 1418 1417 1417 1418 1419 1419 1420 1417 1418 1420 1420 1418 1413 1401 1396 1403 1413 1417 1414 1411 1411 1412 1413 1416 1419 1414 1400 1391 1394 1393 1381 1370 1369 1368 1359 1355 1358 1360 1360 1361 1361 1361 1360 1360 1361 1363 1362 1362
1459 1452 1450 1453 1452 1449 1446 1444 1442 1441 1441 1445 1445 1442 1441 1441 1439 1437 1438 1437 1436 1438 1441 1441 1441 1441 1438 1436 1435 1433 1428 1426 1424 1424 1422 1419 1416 1418 1420 1420 1419 1419 1420 1421 1421 1421 1421 1415 1410 1409 1405 1403 1401 1397 1395 1397 1400 1404 1407 1407 1408 1407 1410 1414 1408 1394 1388 1394 1393 1382 1374 1373 1373 1370 1362 1355 1354 1355 1357 1357 1356 1356 1355 1355 1356 1358 1359 1358
1456 1448 1445 1446 1443 1440 1440 1438 1436 1436 1436 1438 1438 1433 1432 1433 1435 1433 1431 1430 1430 1433 1437 1438 1437 1437 1434 1432 1432 1429 1426 1426 1425 1422 1420 1417 1415 1417 1419 1420 1420 1420 1421 1423 1423 1424 1424 1419 1413 1409 1406 1403 1402 1400 1398 1394 1391 1392 1397 1400 1402 1404 1405 1403 1392 1384 1389 1393 1382 1372 1371 1369 1367 1366 1362 1355 1351 1350 1352 1352 1351 1350 1350 1352 1354 1355 1354 1354
1453 1447 1444 1443 1438 1433 1432 1429 1428 1430 1431 1432 1432 1429 1428 1427 1425 1424 1423 1425 1427 1427 1429 1430 1427 1426 1425 1424 1425 1424 1422 1422 1420 1416 1414 1413 1414 1416 1418 1417 1418 1420 1421 1422 1423 1424 1424 1421 1418 1417 1414 1410 1408 1405 1401 1398 1393 1391 1392 1393 1396 1398 1393 1387 1384 1386 1388 1381 1369 1367 1368 1364 1362 1360 1354 1350 1348 1347 1347 1347 1347 1346 1346 1348 1351 1351 1349 1349
1451 1447 1445 1442 1437 1434 1433 1431 1430 1429 1427 1428 1425 1422 1422 1420 1416 1415 1414 1416 1419 1420 1421 1420 1416 1415 1415 1416 1419 1418 1414 1413 1410 1405 1406 1409 1411 1411 1411 1410 1413 1418 1421 1421 1422 1423 1422 1419 1418 1420 1419 1415 1411 1407 1403 1401 1398 1396 1395 1395 1395 1390 1381 1380 1383 1384 1383 1375 1367 1369 1370 1364 1359 1353 1346 1346 1347 1346 1345 1345 1343 1343 1342 1343 1346 1347 1345 1344
1449 1447 1447 1445 1438 1434 1432 1430 1431 1429 1426 1425 1422 1418 1417 1413 1410 1411 1407 1404 1408 1411 1412 1411 1409 1408 1409 1411 1412 1410 1406 1404 1402 1398 1399 1402 1404 1404 1404 1404 1407 1414 1419 1420 1420 1421 1421 1419 1418 1422 1421 1413 1407 1406 1403 1401 1400 1400 1400 1397 1389 1381 1376 1377 1377 1375 1374 1373 1371 1374 1373 1364 1353 1347 1345 1346 1344 1342 1343 1342 1341 1339 1337 1338 1342 1342 1340 1337
1447 1446 1446 1446 1439 1433 1429 1427 1427 1425 1421 1419 1418 1416 1413 1409 1407 1409 1406 1400 1401 1403 1403 1403 1404 1405 1405 1405 1404 1401 1399 1398 1396 1396 1395 1396 1397 1398 1399 1399 1400 1406 1412 1415 1416 1417 1418 1418 1418 1420 1417 1408 1403 1401 1399 1401 1405 1401 1392 1383 1375 1374 1376 1374 1369 1364 1364 1366 1369 1368 1361 1353 1347 1346 1346 1342 1337 1336 1338 1338 1337 1334 1333 1336 1338 1335 1332 1331